Sunday, November 19, 2017, 10:27 AM GMT
Back to Local

CYHU, Saint Hubert Airport

Location: , , Canada Lat: 45.517
Local Time: 10:27 AM GMT (10:27 GMT) Lon: -73.417
Time Zone: GMT Elev: 88 ft

Show me the last for .
Show Coded

Time T Td Feel RH Dir Speed Gust Alt SLP Vis Weather Sky Remarks
2017-11-19 10:00 36 36 30 100 360° 7 - 29.09 29.10 2 -RA BR OVC004 None
2017-11-19 09:51 36 36 30 100 340° 7 - 29.09 29.10 2 -RA BR OVC004 None
2017-11-19 09:24 36 36 29 100 10° 8 - 29.10 29.11 1 -RA BR OVC004 None
2017-11-19 09:15 36 36 32 100 350° 5 - 29.10 29.11 2 -RA BR OVC004 None
2017-11-19 09:00 36 36 31 100 10° 6 - 29.10 29.11 1 -RA BR OVC004 None
2017-11-19 08:53 36 34 - 93 10° 2 - 29.11 29.12 1 -RA BR OVC004 None
2017-11-19 08:40 36 36 32 100 20° 5 - 29.12 29.13 1 -RA BR OVC006 None
2017-11-19 08:33 36 36 31 100 30° 6 - 29.12 29.13 1 BR OVC006 None
2017-11-19 08:12 36 36 31 100 40° 6 - 29.13 29.14 1 -RA BR OVC006 None
2017-11-19 08:06 36 36 31 100 30° 6 - 29.14 29.15 2 -RA BR OVC006 None
2017-11-19 08:02 36 36 31 100 30° 6 - 29.14 29.15 3 -RA BR OVC006 None
2017-11-19 08:00 36 36 31 100 30° 6 - 29.14 29.15 3 BR OVC006 Pressure falling rapidly
2017-11-19 07:55 36 36 30 100 40° 7 - 29.15 29.15 3 BR OVC008 Pressure falling rapidly
2017-11-19 07:44 36 36 31 100 30° 6 - 29.16 29.17 3 -RA BR OVC008 Pressure falling rapidly
2017-11-19 07:32 36 36 32 100 30° 5 - 29.17 29.18 2 -RA BR OVC008 Pressure falling rapidly
2017-11-19 07:17 36 36 - 100 - Calm - 29.19 29.20 5 -RA BR OVC008 None
2017-11-19 07:03 36 36 33 100 80° 3 - 29.19 29.20 4 BR OVC008 None
2017-11-19 07:00 36 36 - 100 Variable 2 - 29.20 29.20 4 -RA BR SCT005 OVC008 None
2017-11-19 06:55 36 36 - 100 Variable 2 - 29.20 29.20 3 -RA BR OVC008 None
2017-11-19 06:54 36 36 - 100 Variable 2 - 29.20 29.20 3 -RA BR SCT005 OVC010 None
2017-11-19 06:52 36 36 - 100 Variable 2 - 29.20 29.21 3 -RA BR OVC008 None
2017-11-19 06:51 36 36 33 100 80° 3 - 29.20 29.20 3 BR SCT005 OVC010 None
2017-11-19 06:20 34 34 27 100 90° 8 - 29.19 29.19 3 BR OVC005 Pressure falling rapidly
2017-11-19 06:17 34 34 27 100 100° 8 - 29.19 29.20 2 BR OVC005 None
2017-11-19 06:02 34 34 27 100 80° 8 - 29.20 29.21 2 -RA BR OVC005 Pressure falling rapidly
2017-11-19 06:00 34 34 27 100 80° 8 - 29.21 29.21 2 BR OVC005 Pressure falling rapidly
2017-11-19 05:59 34 34 27 100 80° 8 - 29.21 29.22 2 BR OVC005 Pressure falling rapidly
2017-11-19 05:54 34 34 27 100 80° 8 - 29.22 29.23 3 BR BKN005 OVC009 Pressure falling rapidly
2017-11-19 05:50 34 34 28 100 80° 7 - 29.23 29.24 3 BR OVC007 Pressure falling rapidly
2017-11-19 05:17 34 32 30 93 110° 5 - 29.28 29.28 4 -RA BR OVC013 None
2017-11-19 05:13 34 32 30 93 100° 5 - 29.28 29.28 5 BR OVC013 None
2017-11-19 05:00 34 32 27 93 120° 8 - 29.28 29.28 9 OVC017 None
2017-11-19 04:27 34 30 26 86 100° 9 - 29.29 29.29 9 OVC017 Pressure falling rapidly
2017-11-19 04:00 34 30 27 86 110° 8 - 29.33 29.34 9 -RA OVC019 None
2017-11-19 03:31 32 30 27 92 60° 5 - 29.35 29.36 7 -RA OVC021 Pressure falling rapidly
2017-11-19 03:25 32 30 27 92 50° 5 - 29.36 29.36 8 -RASN BKN021 OVC055 Pressure falling rapidly
2017-11-19 03:11 32 28 29 86 20° 3 - 29.38 29.38 8 -SN BKN023 OVC055 None
2017-11-19 03:10 32 28 29 86 20° 3 - 29.38 29.38 8 -RASN BKN023 OVC055 None
2017-11-19 03:05 32 28 27 86 40° 5 - 29.38 29.38 9 -RASN SCT023 OVC055 None
2017-11-19 03:03 32 28 27 86 30° 5 - 29.38 29.39 9 -RA FEW023 OVC055 None
2017-11-19 03:02 32 28 29 86 30° 3 - 29.38 29.39 9 -FZRA FEW023 OVC055 None
2017-11-19 03:00 32 28 27 86 30° 5 - 29.38 29.39 9 -FZRA FEW038 OVC055 Pressure falling rapidly
2017-11-19 02:45 30 28 24 92 30° 6 - 29.39 29.40 6 -FZRA BR BKN040 OVC050 Pressure falling rapidly
2017-11-19 02:41 30 28 25 92 20° 5 - 29.40 29.41 5 -FZRA BR BKN040 OVC050 Pressure falling rapidly
2017-11-19 02:36 30 27 24 86 10° 6 - 29.41 29.41 5 -FZRA -SN OVC038 None
2017-11-19 02:35 30 27 24 86 10° 6 - 29.41 29.41 6 -FZRA -SN OVC038 None
2017-11-19 02:32 30 27 25 86 20° 5 - 29.41 29.42 7 -SN BKN036 OVC044 None
2017-11-19 02:00 30 25 23 80 40° 8 - 29.43 29.44 9 -SN OVC036 Pressure falling rapidly
2017-11-19 01:52 30 25 23 80 30° 7 - 29.44 29.45 9 -SN OVC036 Pressure falling rapidly
2017-11-19 01:00 30 25 23 80 10° 8 - 29.48 29.49 9 OVC040 None
2017-11-19 00:00 30 25 22 80 20° 9 - 29.50 29.51 9 OVC042 None
2017-11-18 23:00 32 23 25 68 30° 8 - 29.53 29.54 9 OVC050 None
2017-11-18 22:38 32 23 25 68 20° 8 - 29.53 29.54 9 OVC050 None
2017-11-18 22:24 32 23 26 68 20° 7 - 29.54 29.54 9 -SN OVC055 None
2017-11-18 22:00 32 23 24 68 20° 10 - 29.54 29.55 9 OVC060 Pressure falling rapidly
2017-11-18 21:00 32 23 24 68 10° 9 - 29.57 29.58 9 OVC070 None
2017-11-18 20:00 32 21 26 63 60° 6 - 29.57 29.58 9 OVC070 None
2017-11-18 19:00 32 23 23 68 40° 12 - 29.61 29.62 9 OVC070 None
2017-11-18 18:00 32 23 25 68 60° 8 - 29.67 29.68 9 BKN100 BKN120 BKN220 None
2017-11-18 17:00 30 21 21 68 40° 10 - 29.71 29.72 9 OVC110 Pressure falling rapidly
2017-11-18 16:00 30 19 23 63 30° 8 - 29.75 29.76 9 FEW100 SCT120 SCT140 None
2017-11-18 15:00 28 21 20 74 40° 8 - 29.78 29.79 9 FEW130 None
2017-11-18 14:00 27 21 19 79 50° 7 - 29.83 29.84 9 BKN130 None
2017-11-18 13:00 25 19 17 79 80° 7 - 29.87 29.88 9 CLR None
2017-11-18 12:00 23 18 14 79 90° 8 - 29.91 29.92 9 OVC130 None
2017-11-18 11:00 21 18 16 85 110° 3 - 29.94 29.95 9 FEW180 BKN240 None

Support USWX by starting your Amazon purchase here.